TimeEDT,TemperatureF,Dew PointF,Humidity,Sea Level PressureIn,VisibilityMPH,Wind Direction,Wind SpeedMPH,Gust SpeedMPH,PrecipitationIn,Events,Conditions,WindDirDegrees,DateUTC
12:15 AM,55.0,48.2,78,30.19,10.0,Calm,Calm,-,N/A,,Clear,0,2013-08-15 04:15:00
12:35 AM,55.2,47.3,75,30.20,10.0,Calm,Calm,-,N/A,,Clear,0,2013-08-15 04:35:00
12:55 AM,54.9,45.9,72,30.20,10.0,Calm,Calm,-,N/A,,Clear,0,2013-08-15 04:55:00
1:15 AM,55.4,45.5,69,30.20,10.0,Calm,Calm,-,N/A,,Clear,0,2013-08-15 05:15:00
1:35 AM,54.1,45.7,73,30.19,10.0,Calm,Calm,-,N/A,,Clear,0,2013-08-15 05:35:00
1:55 AM,53.8,46.6,77,30.20,10.0,Calm,Calm,-,N/A,,Clear,0,2013-08-15 05:55:00
2:15 AM,54.5,46.0,73,30.19,10.0,Calm,Calm,-,N/A,,Clear,0,2013-08-15 06:15:00
2:35 AM,53.8,45.5,74,30.19,10.0,Calm,Calm,-,N/A,,Clear,0,2013-08-15 06:35:00
2:55 AM,53.6,45.5,74,30.18,10.0,Calm,Calm,-,N/A,,Clear,0,2013-08-15 06:55:00
3:15 AM,52.9,45.0,74,30.18,10.0,Calm,Calm,-,N/A,,Clear,0,2013-08-15 07:15:00
3:35 AM,53.1,44.6,73,30.18,10.0,Calm,Calm,-,N/A,,Scattered Clouds,0,2013-08-15 07:35:00
3:55 AM,53.6,44.6,72,30.18,10.0,Calm,Calm,-,N/A,,Overcast,0,2013-08-15 07:55:00
4:15 AM,53.6,44.6,72,30.18,10.0,Calm,Calm,-,N/A,,Overcast,0,2013-08-15 08:15:00
4:35 AM,53.4,44.1,71,30.18,10.0,Calm,Calm,-,N/A,,Mostly Cloudy,0,2013-08-15 08:35:00
4:55 AM,53.6,44.1,70,30.18,10.0,North,3.5,-,N/A,,Scattered Clouds,350,2013-08-15 08:55:00
5:15 AM,52.2,44.6,75,30.19,10.0,Calm,Calm,-,N/A,,Mostly Cloudy,0,2013-08-15 09:15:00
5:35 AM,53.4,43.9,70,30.19,10.0,Calm,Calm,-,N/A,,Mostly Cloudy,0,2013-08-15 09:35:00
5:55 AM,52.5,44.4,74,30.19,10.0,Calm,Calm,-,N/A,,Mostly Cloudy,0,2013-08-15 09:55:00
6:15 AM,49.6,46.6,89,30.19,10.0,Calm,Calm,-,N/A,,Mostly Cloudy,0,2013-08-15 10:15:00
6:35 AM,50.0,46.6,88,30.20,10.0,Calm,Calm,-,N/A,,Mostly Cloudy,0,2013-08-15 10:35:00
6:55 AM,48.7,46.2,91,30.21,7.0,Calm,Calm,-,N/A,,Mostly Cloudy,0,2013-08-15 10:55:00
7:15 AM,48.7,46.0,90,30.21,2.0,Calm,Calm,-,N/A,,Overcast,0,2013-08-15 11:15:00
7:35 AM,48.2,46.4,93,30.21,0.2,Calm,Calm,-,N/A,Fog,Fog,0,2013-08-15 11:35:00
7:55 AM,50.9,48.2,90,30.21,7.0,Calm,Calm,-,N/A,,Overcast,0,2013-08-15 11:55:00
8:15 AM,50.9,48.7,92,30.22,5.0,Calm,Calm,-,N/A,,Overcast,0,2013-08-15 12:15:00
8:35 AM,51.1,49.1,93,30.23,4.0,Calm,Calm,-,N/A,,Overcast,0,2013-08-15 12:35:00
8:55 AM,52.9,49.5,88,30.23,10.0,Calm,Calm,-,N/A,,Overcast,0,2013-08-15 12:55:00
9:15 AM,53.1,50.2,90,30.23,10.0,Calm,Calm,-,N/A,,Overcast,0,2013-08-15 13:15:00
9:35 AM,54.0,50.4,88,30.24,10.0,Calm,Calm,-,N/A,,Overcast,0,2013-08-15 13:35:00
9:55 AM,54.7,51.1,88,30.24,10.0,Calm,Calm,-,N/A,,Overcast,0,2013-08-15 13:55:00
10:15 AM,55.0,51.1,86,30.24,10.0,Calm,Calm,-,N/A,,Overcast,0,2013-08-15 14:15:00
10:35 AM,56.1,51.4,84,30.24,10.0,Calm,Calm,-,N/A,,Overcast,0,2013-08-15 14:35:00
10:55 AM,57.2,51.1,80,30.24,10.0,Calm,Calm,-,N/A,,Overcast,0,2013-08-15 14:55:00
11:15 AM,57.0,49.8,77,30.24,10.0,SE,3.5,-,N/A,,Overcast,130,2013-08-15 15:15:00
11:35 AM,57.0,48.6,73,30.24,10.0,ESE,3.5,-,N/A,,Overcast,120,2013-08-15 15:35:00
11:55 AM,57.6,49.6,75,30.24,10.0,SE,3.5,-,N/A,,Overcast,130,2013-08-15 15:55:00
12:15 PM,57.2,49.3,75,30.24,10.0,SE,3.5,-,N/A,,Overcast,130,2013-08-15 16:15:00
12:35 PM,57.6,49.1,73,30.23,10.0,SSE,3.5,-,N/A,,Overcast,150,2013-08-15 16:35:00
12:55 PM,57.6,48.0,70,30.23,10.0,Calm,Calm,-,N/A,,Overcast,0,2013-08-15 16:55:00
1:15 PM,58.5,49.1,71,30.23,10.0,ESE,3.5,-,N/A,,Overcast,120,2013-08-15 17:15:00
1:35 PM,58.1,49.1,72,30.23,10.0,SSE,3.5,-,N/A,,Overcast,150,2013-08-15 17:35:00
1:55 PM,58.1,49.6,73,30.23,10.0,SE,3.5,-,N/A,,Overcast,140,2013-08-15 17:55:00
2:15 PM,59.5,48.7,67,30.21,10.0,ESE,4.6,-,N/A,,Overcast,120,2013-08-15 18:15:00
2:35 PM,61.0,49.1,65,30.21,10.0,Calm,Calm,-,N/A,,Overcast,0,2013-08-15 18:35:00
2:55 PM,61.7,48.4,62,30.20,10.0,Calm,Calm,-,N/A,,Overcast,0,2013-08-15 18:55:00
3:15 PM,61.2,49.6,66,30.20,10.0,Calm,Calm,-,N/A,,Overcast,0,2013-08-15 19:15:00
3:35 PM,62.6,50.0,63,30.19,10.0,South,3.5,-,N/A,,Overcast,180,2013-08-15 19:35:00
3:55 PM,61.3,51.1,69,30.18,10.0,Calm,Calm,-,N/A,,Overcast,0,2013-08-15 19:55:00
4:15 PM,62.1,51.4,68,30.18,10.0,Calm,Calm,-,N/A,,Overcast,0,2013-08-15 20:15:00
4:35 PM,63.1,50.9,64,30.17,10.0,Calm,Calm,-,N/A,,Overcast,0,2013-08-15 20:35:00
4:55 PM,61.9,51.3,68,30.17,10.0,SE,3.5,-,N/A,,Overcast,130,2013-08-15 20:55:00
5:15 PM,62.2,50.9,66,30.17,10.0,Calm,Calm,-,N/A,,Overcast,0,2013-08-15 21:15:00
5:35 PM,63.3,51.3,65,30.18,10.0,SE,3.5,-,N/A,,Scattered Clouds,130,2013-08-15 21:35:00
5:55 PM,62.8,53.2,71,30.18,10.0,ESE,5.8,-,N/A,,Mostly Cloudy,110,2013-08-15 21:55:00
6:15 PM,61.7,52.9,73,30.18,10.0,SE,3.5,-,N/A,,Overcast,130,2013-08-15 22:15:00
6:35 PM,61.3,53.1,74,30.18,10.0,SE,3.5,-,N/A,,Scattered Clouds,130,2013-08-15 22:35:00
6:55 PM,61.0,53.2,76,30.18,10.0,SE,4.6,-,N/A,,Mostly Cloudy,130,2013-08-15 22:55:00
7:15 PM,60.1,52.9,77,30.18,10.0,SE,3.5,-,N/A,,Mostly Cloudy,140,2013-08-15 23:15:00
7:35 PM,58.5,52.7,81,30.19,10.0,Calm,Calm,-,N/A,,Scattered Clouds,0,2013-08-15 23:35:00
7:55 PM,57.6,52.3,83,30.20,10.0,SE,3.5,-,N/A,,Scattered Clouds,140,2013-08-15 23:55:00
8:15 PM,57.0,53.4,88,30.20,10.0,Calm,Calm,-,N/A,,Scattered Clouds,0,2013-08-16 00:15:00
8:35 PM,56.1,53.1,89,30.21,10.0,Calm,Calm,-,N/A,,Scattered Clouds,0,2013-08-16 00:35:00
8:55 PM,55.4,52.7,91,30.20,10.0,Calm,Calm,-,N/A,,Clear,0,2013-08-16 00:55:00
9:15 PM,56.1,52.9,89,30.20,10.0,Calm,Calm,-,N/A,,Clear,0,2013-08-16 01:15:00
9:35 PM,56.3,53.2,89,30.21,10.0,Calm,Calm,-,N/A,,Clear,0,2013-08-16 01:35:00
9:55 PM,55.6,53.1,91,30.21,7.0,Calm,Calm,-,N/A,,Clear,0,2013-08-16 01:55:00
10:15 PM,55.2,53.1,92,30.22,7.0,Calm,Calm,-,N/A,,Clear,0,2013-08-16 02:15:00
10:35 PM,55.2,52.7,91,30.22,7.0,Calm,Calm,-,N/A,,Clear,0,2013-08-16 02:35:00
10:55 PM,55.4,52.9,91,30.21,10.0,Calm,Calm,-,N/A,,Clear,0,2013-08-16 02:55:00
11:15 PM,53.8,51.8,93,30.21,0.2,Calm,Calm,-,N/A,Fog,Fog,0,2013-08-16 03:15:00
11:35 PM,53.6,51.8,94,30.22,1.0,Calm,Calm,-,N/A,,Overcast,0,2013-08-16 03:35:00
11:55 PM,53.6,51.8,94,30.23,1.8,Calm,Calm,-,N/A,,Overcast,0,2013-08-16 03:55:00